Location: Cuiry
(49.3858°N, 3.7708°E)
Time: 23:32:19
(UTC+00:00)

Cosmos 1933 Rocket - Pass Details

Date: 12 January 2026
Orbit: 600 x 623 km, 82.5° (Epoch: 7 February)

Event Time Altitude Azimuth Distance (km) Brightness Sun altitude
Rises 17:46:31 0° 355° (N) 2,910 6.9 -15.1°
Reaches altitude 10° 17:48:53 10° 3° (N) 1,996 6.0 -15.5°
Maximum altitude 17:53:03 40° 74° (ENE) 914 3.9 -16.1°
Drops below altitude 10° 17:57:10 10° 144° (SE) 1,967 5.9 -16.8°
Sets 17:59:28 0° 152° (SSE) 2,863 6.8 -17.2°
